Regional Weather Roundup
Issued by NWS

Home | Current Version | Previous Version | Text Only | Print | Product List | Glossary Off
Versions: 1 2 3 4 5 6 7 8 9 10 11 12 13 14 15 16 17 18 19 20 21 22 23 24 25 26 27 28 29 30 31 32 33 34 35 36 37 38 39 40 41 42 43 44 45 46 47 48 49 50

000
ASUS43 KLMK 050210
RWRKY
KENTUCKY REGIONAL WEATHER ROUNDUP
NATIONAL WEATHER SERVICE LOUISVILLE KY
1000 PM EDT MON MAY 04 2015

NOTE "FAIR" INDICATES FEW OR NO CLOUDS BELOW 12,000 FEET
WITH NO SIGNIFICANT WEATHER AND/OR OBSTRUCTIONS TO VISIBILITY.

KYZ001>023-026-027-061>063-070>075-050300-
WESTERN AND SOUTH CENTRAL KENTUCKY

CITY           SKY/WX    TMP DP  RH WIND       PRES   REMARKS
PADUCAH        CLEAR     72  55  55 S6        30.13R
HENDERSON      CLEAR     72  54  53 S7        30.15R
OWENSBORO      CLEAR     71  58  63 S5        30.17R
HOPKINSVILLE   CLEAR     73  54  51 S6        30.18R
BOWLING GREEN  PTCLDY    73  54  51 S5        30.20R
GLASGOW        CLEAR     68  54  62 CALM      30.21R
$$

KYZ024-025-028>034-038-045-046-053-050300-
NORTH CENTRAL KENTUCKY

CITY           SKY/WX    TMP DP  RH WIND       PRES   REMARKS
LOUISVILLE/SDF PTCLDY    76  56  49 S6        30.18R
LOUISVILLE/LOU PTCLDY    75  56  51 S3        30.18R
FORT KNOX      CLEAR     66  57  73 CALM      30.17R
$$

KYZ035>037-039>044-047>052-055>060-089>105-050300-
NORTHEAST KENTUCKY

CITY           SKY/WX    TMP DP  RH WIND       PRES   REMARKS
LEXINGTON      MOCLDY    69  56  62 S6        30.21R
COVINGTON      PTCLDY    68  57  68 CALM      30.18R
FRANKFORT      PTCLDY    71  55  56 S6        30.19R
$$

KYZ054-064>069-076>088-106>120-050300-
SOUTHEAST KENTUCKY

CITY           SKY/WX    TMP DP  RH WIND       PRES   REMARKS
JACKSON        CLEAR     72  46  39 CALM      30.24R
LONDON         CLEAR     67  50  54 CALM      30.24R
SOMERSET       PTCLDY    63  52  67 CALM      30.24R
MIDDLESBORO    CLEAR     64  53  68 CALM      30.26R
MONTICELLO     CLEAR     62  55  77 CALM      30.26R
$$



USA.gov is the U.S. government's official web portal to all federal, state and local government web resources and services.